| time (UTC) | temp C | wind direction | speed KPH | gust KPH | rain 1hr cm | rain 24hr cm | rain mn cm | humidity % | barometer mb |
| 20260510190547 | 27 | 96 | 3.2 | 16.1 | 0.00 | 0.00 | 0.00 | 28 | 1015.3 |
| 20260510190103 | 27 | 165 | 3.2 | 8.0 | 0.00 | 0.00 | 0.00 | 29 | 1015.4 |
| 20260510185547 | 27 | 107 | 0.0 | 12.9 | 0.00 | 0.00 | 0.00 | 30 | 1015.4 |
| 20260510185046 | 27 | 178 | 3.2 | 12.9 | 0.00 | 0.00 | 0.00 | 29 | 1015.4 |
| 20260510184553 | 27 | 155 | 3.2 | 12.9 | 0.00 | 0.00 | 0.00 | 29 | 1015.4 |
| 20260510184048 | 27 | 149 | 1.6 | 14.5 | 0.00 | 0.00 | 0.00 | 27 | 1015.5 |
| 20260510183548 | 27 | 90 | 1.6 | 14.5 | 0.00 | 0.00 | 0.00 | 30 | 1015.6 |
| 20260510183052 | 27 | 67 | 4.8 | 14.5 | 0.00 | 0.00 | 0.00 | 31 | 1015.6 |
| 20260510182547 | 27 | 70 | 4.8 | 11.3 | 0.00 | 0.00 | 0.00 | 30 | 1015.5 |
| 20260510182048 | 27 | 78 | 3.2 | 12.9 | 0.00 | 0.00 | 0.00 | 30 | 1015.5 |
| 20260510181559 | 27 | 163 | 1.6 | 12.9 | 0.00 | 0.00 | 0.00 | 30 | 1015.6 |
| 20260510181046 | 27 | 95 | 3.2 | 9.7 | 0.00 | 0.00 | 0.00 | 33 | 1015.8 |
| 20260510180548 | 27 | 207 | 3.2 | 9.7 | 0.00 | 0.00 | 0.00 | 28 | 1015.8 |
| 20260510180117 | 26 | 84 | 3.2 | 14.5 | 0.00 | 0.00 | 0.00 | 31 | 1015.9 |
| 20260510175544 | 26 | 69 | 4.8 | 14.5 | 0.00 | 0.00 | 0.00 | 29 | 1015.9 |
| 20260510175047 | 27 | 72 | 3.2 | 9.7 | 0.00 | 0.00 | 0.00 | 32 | 1015.9 |
| 20260510174555 | 26 | 74 | 3.2 | 8.0 | 0.00 | 0.00 | 0.00 | 31 | 1015.9 |
| 20260510174050 | 26 | 167 | 1.6 | 8.0 | 0.00 | 0.00 | 0.00 | 31 | 1016.0 |
| 20260510173548 | 26 | 0 | 1.6 | 4.8 | 0.00 | 0.00 | 0.00 | 32 | 1016.0 |
| 20260510173110 | 26 | 158 | 1.6 | 8.0 | 0.00 | 0.00 | 0.00 | 30 | 1016.1 |
| 20260510172547 | 26 | 133 | 3.2 | 11.3 | 0.00 | 0.00 | 0.00 | 29 | 1016.1 |
| 20260510172048 | 26 | 140 | 3.2 | 12.9 | 0.00 | 0.00 | 0.00 | 29 | 1016.1 |
| 20260510171600 | 26 | 55 | 4.8 | 14.5 | 0.00 | 0.00 | 0.00 | 30 | 1016.1 |
| 20260510171048 | 26 | 48 | 3.2 | 14.5 | 0.00 | 0.00 | 0.00 | 30 | 1016.1 |
| 20260510170548 | 26 | 122 | 1.6 | 11.3 | 0.00 | 0.00 | 0.00 | 33 | 1016.1 |
| 20260510170112 | 26 | 82 | 3.2 | 11.3 | 0.00 | 0.00 | 0.00 | 31 | 1016.1 |
| 20260510165548 | 26 | 0 | 3.2 | 8.0 | 0.00 | 0.00 | 0.00 | 31 | 1016.2 |
| 20260510165044 | 26 | 80 | 4.8 | 11.3 | 0.00 | 0.00 | 0.00 | 34 | 1016.2 |
| 20260510164605 | 26 | 273 | 3.2 | 11.3 | 0.00 | 0.00 | 0.00 | 31 | 1016.3 |
| 20260510164047 | 26 | 311 | 3.2 | 8.0 | 0.00 | 0.00 | 0.00 | 31 | 1016.3 |
| 20260510163547 | 26 | 67 | 1.6 | 6.4 | 0.00 | 0.00 | 0.00 | 34 | 1016.3 |
| 20260510163056 | 26 | 225 | 3.2 | 6.4 | 0.00 | 0.00 | 0.00 | 32 | 1016.4 |
| 20260510162546 | 25 | 222 | 1.6 | 6.4 | 0.00 | 0.00 | 0.00 | 32 | 1016.5 |
| 20260510162049 | 25 | 290 | 1.6 | 9.7 | 0.00 | 0.00 | 0.00 | 32 | 1016.6 |
| 20260510161555 | 26 | 136 | 3.2 | 9.7 | 0.00 | 0.00 | 0.00 | 34 | 1016.5 |
| 20260510161047 | 25 | 130 | 1.6 | 9.7 | 0.00 | 0.00 | 0.00 | 34 | 1016.6 |
| 20260510160547 | 25 | 230 | 1.6 | 6.4 | 0.00 | 0.00 | 0.00 | 38 | 1016.6 |
| 20260510160054 | 25 | 200 | 0.0 | 8.0 | 0.00 | 0.00 | 0.00 | 36 | 1016.6 |
| 20260510155548 | 25 | 263 | 3.2 | 12.9 | 0.00 | 0.00 | 0.00 | 36 | 1016.5 |
| 20260510155048 | 25 | 0 | 3.2 | 12.9 | 0.00 | 0.00 | 0.00 | 39 | 1016.6 |
| 20260510154554 | 25 | 0 | 3.2 | 12.9 | 0.00 | 0.00 | 0.00 | 39 | 1016.6 |
| 20260510154047 | 25 | 240 | 3.2 | 12.9 | 0.00 | 0.00 | 0.00 | 40 | 1016.6 |
| 20260510153544 | 25 | 292 | 4.8 | 12.9 | 0.00 | 0.00 | 0.00 | 39 | 1016.6 |
| 20260510153057 | 25 | 140 | 1.6 | 4.8 | 0.00 | 0.00 | 0.00 | 47 | 1016.6 |
| 20260510152548 | 25 | 30 | 3.2 | 9.7 | 0.00 | 0.00 | 0.00 | 43 | 1016.6 |
| 20260510152047 | 24 | 98 | 1.6 | 9.7 | 0.00 | 0.00 | 0.00 | 44 | 1016.6 |
| 20260510151557 | 24 | 165 | 0.0 | 11.3 | 0.00 | 0.00 | 0.00 | 44 | 1016.6 |
| 20260510151048 | 24 | 0 | 6.4 | 11.3 | 0.00 | 0.00 | 0.00 | 44 | 1016.7 |
| 20260510150547 | 24 | 250 | 1.6 | 8.0 | 0.00 | 0.00 | 0.00 | 45 | 1016.6 |
| 20260510150055 | 23 | 145 | 3.2 | 8.0 | 0.00 | 0.00 | 0.00 | 46 | 1016.7 |
| 20260510145546 | 24 | 48 | 1.6 | 6.4 | 0.00 | 0.00 | 0.00 | 46 | 1016.7 |
| 20260510145044 | 23 | 157 | 1.6 | 4.8 | 0.00 | 0.00 | 0.00 | 48 | 1016.8 |
| 20260510144551 | 23 | 117 | 0.0 | 6.4 | 0.00 | 0.00 | 0.00 | 47 | 1016.7 |
| 20260510144049 | 23 | 169 | 1.6 | 6.4 | 0.00 | 0.00 | 0.00 | 48 | 1016.7 |
| 20260510143548 | 23 | 215 | 1.6 | 6.4 | 0.00 | 0.00 | 0.00 | 53 | 1016.7 |
| 20260510143050 | 22 | 142 | 0.0 | 8.0 | 0.00 | 0.00 | 0.00 | 53 | 1016.8 |
| 20260510142548 | 22 | 179 | 1.6 | 8.0 | 0.00 | 0.00 | 0.00 | 55 | 1016.7 |
| 20260510142047 | 22 | 114 | 1.6 | 6.4 | 0.00 | 0.00 | 0.00 | 58 | 1016.8 |
| 20260510141557 | 21 | 76 | 3.2 | 6.4 | 0.00 | 0.00 | 0.00 | 57 | 1016.7 |
| 20260510141048 | 22 | 139 | 3.2 | 6.4 | 0.00 | 0.00 | 0.00 | 56 | 1016.8 |
| 20260510140546 | 21 | 165 | 0.0 | 9.7 | 0.00 | 0.00 | 0.00 | 60 | 1016.7 |
| 20260510140052 | 21 | 146 | 3.2 | 9.7 | 0.00 | 0.00 | 0.00 | 59 | 1016.7 |
| 20260510135548 | 21 | 126 | 3.2 | 8.0 | 0.00 | 0.00 | 0.00 | 59 | 1016.8 |
| 20260510135048 | 21 | 153 | 1.6 | 8.0 | 0.00 | 0.00 | 0.00 | 61 | 1016.7 |
| 20260510134555 | 21 | 142 | 1.6 | 6.4 | 0.00 | 0.00 | 0.00 | 61 | 1016.6 |
| 20260510134047 | 21 | 157 | 0.0 | 3.2 | 0.00 | 0.00 | 0.00 | 65 | 1016.7 |
| 20260510133548 | 20 | 0 | 0.0 | 6.4 | 0.00 | 0.00 | 0.00 | 72 | 1016.6 |
| 20260510133055 | 20 | 0 | 1.6 | 8.0 | 0.00 | 0.00 | 0.00 | 71 | 1016.6 |
| 20260510132547 | 19 | 123 | 1.6 | 9.7 | 0.00 | 0.00 | 0.00 | 71 | 1016.5 |
| 20260510132045 | 19 | 155 | 1.6 | 9.7 | 0.00 | 0.00 | 0.00 | 74 | 1016.6 |
| 20260510131557 | 18 | 150 | 0.0 | 1.6 | 0.00 | 0.00 | 0.00 | 78 | 1016.6 |
| 20260510131048 | 18 | 0 | 0.0 | 3.2 | 0.00 | 0.00 | 0.00 | 80 | 1016.6 |
| 20260510130547 | 18 | 0 | 0.0 | 3.2 | 0.00 | 0.00 | 0.00 | 82 | 1016.6 |
| 20260510130055 | 17 | 158 | 0.0 | 3.2 | 0.00 | 0.00 | 0.00 | 84 | 1016.6 |
| 20260510125546 | 17 | 0 | 0.0 | 0.0 | 0.00 | 0.00 | 0.00 | 87 | 1016.6 |
| 20260510125048 | 16 | 0 | 0.0 | 0.0 | 0.00 | 0.00 | 0.00 | 89 | 1016.6 |
| 20260510124605 | 16 | 162 | 0.0 | 3.2 | 0.00 | 0.00 | 0.00 | 90 | 1016.5 |
| 20260510124048 | 16 | 0 | 0.0 | 3.2 | 0.00 | 0.00 | 0.00 | 90 | 1016.4 |
| 20260510123547 | 16 | 155 | 0.0 | 3.2 | 0.00 | 0.00 | 0.00 | 91 | 1016.4 |
| 20260510123058 | 16 | 0 | 0.0 | 1.6 | 0.00 | 0.00 | 0.00 | 92 | 1016.1 |
| 20260510122546 | 16 | 0 | 0.0 | 1.6 | 0.00 | 0.00 | 0.00 | 91 | 1016.1 |
| 20260510122047 | 16 | 0 | 0.0 | 1.6 | 0.00 | 0.00 | 0.00 | 93 | 1016.1 |
| 20260510121557 | 16 | 0 | 0.0 | 1.6 | 0.00 | 0.00 | 0.00 | 94 | 1016.0 |
| 20260510121047 | 16 | 0 | 0.0 | 1.6 | 0.00 | 0.00 | 0.00 | 96 | 1015.9 |
| 20260510120546 | 15 | 0 | 0.0 | 1.6 | 0.00 | 0.00 | 0.00 | 95 | 1015.7 |
| 20260510120053 | 14 | 0 | 0.0 | 0.0 | 0.00 | 0.00 | 0.00 | 95 | 1015.6 |
| 20260510115547 | 13 | 0 | 0.0 | 0.0 | 0.00 | 0.00 | 0.00 | 95 | 1015.5 |
| 20260510115047 | 13 | 0 | 0.0 | 0.0 | 0.00 | 0.00 | 0.00 | 95 | 1015.6 |
| 20260510114550 | 13 | 0 | 0.0 | 0.0 | 0.00 | 0.00 | 0.00 | 96 | 1015.5 |
| 20260510114048 | 13 | 0 | 0.0 | 0.0 | 0.00 | 0.00 | 0.00 | 96 | 1015.3 |
| 20260510113547 | 12 | 0 | 0.0 | 1.6 | 0.00 | 0.00 | 0.00 | 95 | 1015.3 |
| 20260510113053 | 12 | 0 | 0.0 | 1.6 | 0.00 | 0.00 | 0.00 | 96 | 1015.2 |
| 20260510112549 | 12 | 0 | 0.0 | 1.6 | 0.00 | 0.00 | 0.00 | 96 | 1015.1 |
| 20260510112048 | 11 | 0 | 0.0 | 0.0 | 0.00 | 0.00 | 0.00 | 96 | 1015.1 |
| 20260510111553 | 11 | 0 | 0.0 | 0.0 | 0.00 | 0.00 | 0.00 | 96 | 1015.1 |
| 20260510111048 | 11 | 0 | 0.0 | 0.0 | 0.00 | 0.00 | 0.00 | 95 | 1015.0 |
| 20260510110548 | 10 | 0 | 0.0 | 0.0 | 0.00 | 0.00 | 0.00 | 95 | 1014.9 |
| 20260510110054 | 10 | 0 | 0.0 | 0.0 | 0.00 | 0.00 | 0.00 | 95 | 1014.9 |
| 20260510105548 | 10 | 0 | 0.0 | 0.0 | 0.00 | 0.00 | 0.00 | 95 | 1014.7 |
| 20260510105045 | 10 | 0 | 0.0 | 0.0 | 0.00 | 0.00 | 0.00 | 95 | 1014.6 |
| 20260510104557 | 10 | 0 | 0.0 | 0.0 | 0.00 | 0.00 | 0.00 | 95 | 1014.6 |
| 20260510104044 | 10 | 0 | 0.0 | 0.0 | 0.00 | 0.00 | 0.00 | 95 | 1014.5 |
| 20260510103548 | 11 | 0 | 0.0 | 0.0 | 0.00 | 0.00 | 0.00 | 95 | 1014.5 |
| 20260510103052 | 11 | 0 | 0.0 | 0.0 | 0.00 | 0.00 | 0.00 | 95 | 1014.4 |
| 20260510102548 | 11 | 0 | 0.0 | 0.0 | 0.00 | 0.00 | 0.00 | 95 | 1014.3 |
| 20260510102045 | 11 | 0 | 0.0 | 0.0 | 0.00 | 0.00 | 0.00 | 95 | 1014.2 |
| 20260510101551 | 11 | 0 | 0.0 | 0.0 | 0.00 | 0.00 | 0.00 | 95 | 1014.2 |
| 20260510101048 | 11 | 0 | 0.0 | 0.0 | 0.00 | 0.00 | 0.00 | 95 | 1014.1 |
| 20260510100547 | 11 | 0 | 0.0 | 0.0 | 0.00 | 0.00 | 0.00 | 95 | 1014.0 |
| 20260510100100 | 11 | 0 | 0.0 | 0.0 | 0.00 | 0.00 | 0.00 | 95 | 1014.0 |
| 20260510095547 | 11 | 0 | 0.0 | 0.0 | 0.00 | 0.00 | 0.00 | 95 | 1013.9 |
| 20260510095048 | 11 | 0 | 0.0 | 0.0 | 0.00 | 0.00 | 0.00 | 95 | 1013.9 |
| 20260510094550 | 11 | 0 | 0.0 | 0.0 | 0.00 | 0.00 | 0.00 | 95 | 1013.9 |
| 20260510094045 | 11 | 0 | 0.0 | 0.0 | 0.00 | 0.00 | 0.00 | 95 | 1013.8 |
| 20260510093545 | 11 | 0 | 0.0 | 0.0 | 0.00 | 0.00 | 0.00 | 94 | 1013.8 |
| 20260510093101 | 11 | 0 | 0.0 | 0.0 | 0.00 | 0.00 | 0.00 | 94 | 1013.7 |
| 20260510092547 | 11 | 0 | 0.0 | 0.0 | 0.00 | 0.00 | 0.00 | 94 | 1013.7 |
| 20260510092046 | 12 | 0 | 0.0 | 0.0 | 0.00 | 0.00 | 0.00 | 94 | 1013.7 |
| 20260510091553 | 12 | 0 | 0.0 | 0.0 | 0.00 | 0.00 | 0.00 | 95 | 1013.6 |
| 20260510091047 | 12 | 0 | 0.0 | 0.0 | 0.00 | 0.00 | 0.00 | 95 | 1013.6 |
| 20260510090548 | 12 | 0 | 0.0 | 0.0 | 0.00 | 0.00 | 0.00 | 95 | 1013.7 |
| 20260510090112 | 12 | 0 | 0.0 | 0.0 | 0.00 | 0.00 | 0.00 | 95 | 1013.7 |
| 20260510085546 | 12 | 0 | 0.0 | 0.0 | 0.00 | 0.00 | 0.00 | 95 | 1013.7 |
| 20260510085051 | 12 | 0 | 0.0 | 0.0 | 0.00 | 0.00 | 0.00 | 95 | 1013.6 |
| 20260510084552 | 12 | 0 | 0.0 | 0.0 | 0.00 | 0.00 | 0.00 | 94 | 1013.5 |
| 20260510084044 | 12 | 0 | 0.0 | 0.0 | 0.00 | 0.00 | 0.00 | 94 | 1013.3 |
| 20260510083551 | 12 | 0 | 0.0 | 0.0 | 0.00 | 0.00 | 0.00 | 94 | 1013.3 |
| 20260510083100 | 12 | 0 | 0.0 | 0.0 | 0.00 | 0.00 | 0.00 | 94 | 1013.3 |
| 20260510082549 | 12 | 0 | 0.0 | 0.0 | 0.00 | 0.00 | 0.00 | 95 | 1013.4 |
| 20260510082048 | 12 | 0 | 0.0 | 0.0 | 0.00 | 0.00 | 0.00 | 94 | 1013.2 |
| 20260510081550 | 12 | 0 | 0.0 | 0.0 | 0.00 | 0.00 | 0.00 | 94 | 1013.2 |
| 20260510081047 | 12 | 0 | 0.0 | 0.0 | 0.00 | 0.00 | 0.00 | 94 | 1013.1 |
| 20260510080547 | 12 | 0 | 0.0 | 0.0 | 0.00 | 0.00 | 0.00 | 94 | 1013.0 |
| 20260510080052 | 12 | 0 | 0.0 | 0.0 | 0.00 | 0.00 | 0.00 | 94 | 1012.9 |
| 20260510075549 | 12 | 0 | 0.0 | 0.0 | 0.00 | 0.00 | 0.00 | 94 | 1012.9 |
| 20260510075048 | 12 | 0 | 0.0 | 0.0 | 0.00 | 0.00 | 0.00 | 94 | 1012.9 |
| 20260510074548 | 12 | 0 | 0.0 | 0.0 | 0.00 | 0.00 | 0.00 | 94 | 1012.9 |
| 20260510074047 | 12 | 0 | 0.0 | 0.0 | 0.00 | 0.00 | 0.00 | 94 | 1012.8 |
| 20260510073547 | 12 | 0 | 0.0 | 0.0 | 0.00 | 0.00 | 0.00 | 94 | 1012.9 |
| 20260510073055 | 12 | 0 | 0.0 | 0.0 | 0.00 | 0.00 | 0.00 | 94 | 1012.9 |
| 20260510072548 | 12 | 0 | 0.0 | 0.0 | 0.00 | 0.00 | 0.00 | 94 | 1012.9 |
| 20260510072047 | 12 | 0 | 0.0 | 0.0 | 0.00 | 0.00 | 0.00 | 94 | 1012.8 |
| 20260510071550 | 13 | 0 | 0.0 | 0.0 | 0.00 | 0.00 | 0.00 | 94 | 1012.8 |
| 20260510071044 | 13 | 0 | 0.0 | 0.0 | 0.00 | 0.00 | 0.00 | 94 | 1012.7 |
| 20260510070546 | 13 | 0 | 0.0 | 0.0 | 0.00 | 0.00 | 0.00 | 94 | 1012.7 |
| 20260510070051 | 13 | 0 | 0.0 | 0.0 | 0.00 | 0.00 | 0.00 | 94 | 1012.6 |
| 20260510065549 | 13 | 0 | 0.0 | 0.0 | 0.00 | 0.00 | 0.00 | 94 | 1012.7 |
| 20260510065049 | 13 | 0 | 0.0 | 0.0 | 0.00 | 0.00 | 0.00 | 94 | 1012.6 |
| 20260510064554 | 13 | 0 | 0.0 | 0.0 | 0.00 | 0.00 | 0.00 | 93 | 1012.7 |
| 20260510064048 | 13 | 0 | 0.0 | 0.0 | 0.00 | 0.00 | 0.00 | 93 | 1012.6 |
| 20260510063547 | 13 | 0 | 0.0 | 0.0 | 0.00 | 0.00 | 0.00 | 94 | 1012.7 |
| 20260510063056 | 13 | 0 | 0.0 | 0.0 | 0.00 | 0.00 | 0.00 | 93 | 1012.7 |
| 20260510062545 | 13 | 0 | 0.0 | 0.0 | 0.00 | 0.00 | 0.00 | 94 | 1012.7 |
| 20260510062047 | 13 | 0 | 0.0 | 0.0 | 0.00 | 0.00 | 0.00 | 93 | 1012.7 |
| 20260510061555 | 13 | 0 | 0.0 | 0.0 | 0.00 | 0.00 | 0.00 | 93 | 1012.9 |
| 20260510061044 | 13 | 0 | 0.0 | 0.0 | 0.00 | 0.00 | 0.00 | 93 | 1012.8 |
| 20260510060547 | 13 | 0 | 0.0 | 0.0 | 0.00 | 0.00 | 0.00 | 93 | 1012.9 |
| 20260510060051 | 13 | 0 | 0.0 | 0.0 | 0.00 | 0.00 | 0.00 | 93 | 1012.9 |
| 20260510055547 | 13 | 0 | 0.0 | 0.0 | 0.00 | 0.00 | 0.00 | 93 | 1012.9 |
| 20260510055044 | 13 | 0 | 0.0 | 0.0 | 0.00 | 0.00 | 0.00 | 93 | 1012.8 |
| 20260510054547 | 13 | 0 | 0.0 | 0.0 | 0.00 | 0.00 | 0.00 | 93 | 1012.8 |
| 20260510054043 | 13 | 0 | 0.0 | 0.0 | 0.00 | 0.00 | 0.00 | 93 | 1012.8 |
| 20260510053544 | 13 | 0 | 0.0 | 1.6 | 0.00 | 0.00 | 0.00 | 93 | 1012.9 |
| 20260510053055 | 14 | 0 | 0.0 | 1.6 | 0.00 | 0.00 | 0.00 | 93 | 1013.0 |
| 20260510052548 | 14 | 0 | 0.0 | 0.0 | 0.00 | 0.00 | 0.00 | 93 | 1013.1 |
| 20260510052048 | 14 | 0 | 0.0 | 0.0 | 0.00 | 0.00 | 0.00 | 93 | 1013.2 |
| 20260510051559 | 14 | 0 | 0.0 | 0.0 | 0.00 | 0.00 | 0.00 | 92 | 1013.2 |
| 20260510051047 | 14 | 0 | 0.0 | 0.0 | 0.00 | 0.00 | 0.00 | 93 | 1013.1 |
| 20260510050551 | 14 | 0 | 0.0 | 0.0 | 0.00 | 0.00 | 0.00 | 92 | 1013.1 |
| 20260510050055 | 14 | 0 | 0.0 | 0.0 | 0.00 | 0.00 | 0.00 | 92 | 1013.1 |
| 20260510045545 | 14 | 0 | 0.0 | 0.0 | 0.00 | 0.00 | 0.00 | 93 | 1013.1 |
| 20260510045045 | 14 | 0 | 0.0 | 0.0 | 0.00 | 0.00 | 0.00 | 92 | 1013.1 |
| 20260510044550 | 14 | 0 | 0.0 | 0.0 | 0.00 | 0.00 | 0.00 | 92 | 1013.2 |
| 20260510044044 | 14 | 0 | 0.0 | 0.0 | 0.00 | 0.00 | 0.00 | 92 | 1013.2 |
| 20260510043544 | 14 | 0 | 0.0 | 0.0 | 0.00 | 0.00 | 0.00 | 92 | 1013.3 |
| 20260510043053 | 14 | 0 | 0.0 | 0.0 | 0.00 | 0.00 | 0.00 | 92 | 1013.2 |
| 20260510042546 | 14 | 0 | 0.0 | 0.0 | 0.00 | 0.00 | 0.00 | 92 | 1013.2 |
| 20260510042045 | 14 | 0 | 0.0 | 0.0 | 0.00 | 0.00 | 0.00 | 91 | 1013.1 |
| 20260510041556 | 14 | 0 | 0.0 | 0.0 | 0.00 | 0.00 | 0.00 | 92 | 1013.2 |
| 20260510041048 | 14 | 0 | 0.0 | 0.0 | 0.00 | 0.00 | 0.00 | 91 | 1013.2 |
| 20260510040550 | 14 | 0 | 0.0 | 0.0 | 0.00 | 0.00 | 0.00 | 91 | 1013.2 |
| 20260510040058 | 15 | 0 | 0.0 | 0.0 | 0.00 | 0.00 | 0.00 | 91 | 1013.2 |
| 20260510035548 | 15 | 0 | 0.0 | 0.0 | 0.00 | 0.00 | 0.00 | 91 | 1013.1 |
| 20260510035045 | 15 | 0 | 0.0 | 0.0 | 0.00 | 0.00 | 0.00 | 91 | 1013.1 |
| 20260510034556 | 15 | 0 | 0.0 | 0.0 | 0.00 | 0.00 | 0.00 | 91 | 1013.1 |
| 20260510034048 | 15 | 0 | 0.0 | 0.0 | 0.00 | 0.00 | 0.00 | 90 | 1013.2 |
| 20260510033549 | 15 | 0 | 0.0 | 0.0 | 0.00 | 0.00 | 0.00 | 90 | 1013.2 |
| 20260510033101 | 15 | 0 | 0.0 | 0.0 | 0.00 | 0.00 | 0.00 | 90 | 1013.1 |
| 20260510032547 | 15 | 0 | 0.0 | 0.0 | 0.00 | 0.00 | 0.00 | 90 | 1013.2 |
| 20260510032047 | 15 | 0 | 0.0 | 0.0 | 0.00 | 0.00 | 0.00 | 90 | 1013.0 |
| 20260510031553 | 15 | 0 | 0.0 | 0.0 | 0.00 | 0.00 | 0.00 | 90 | 1013.1 |
| 20260510031044 | 15 | 0 | 0.0 | 0.0 | 0.00 | 0.00 | 0.00 | 89 | 1013.1 |
| 20260510030544 | 15 | 0 | 0.0 | 0.0 | 0.00 | 0.00 | 0.00 | 89 | 1013.1 |
| 20260510030048 | 15 | 0 | 0.0 | 0.0 | 0.00 | 0.00 | 0.00 | 89 | 1013.1 |
| 20260510025547 | 15 | 0 | 0.0 | 0.0 | 0.00 | 0.00 | 0.00 | 89 | 1013.1 |
| 20260510025047 | 15 | 0 | 0.0 | 0.0 | 0.00 | 0.00 | 0.00 | 89 | 1013.1 |
| 20260510024552 | 15 | 0 | 0.0 | 1.6 | 0.00 | 0.00 | 0.00 | 89 | 1013.0 |
| 20260510024050 | 15 | 0 | 0.0 | 1.6 | 0.00 | 0.00 | 0.00 | 88 | 1013.0 |
| 20260510023545 | 15 | 0 | 0.0 | 1.6 | 0.00 | 0.00 | 0.00 | 88 | 1013.0 |
| 20260510023055 | 15 | 0 | 0.0 | 0.0 | 0.00 | 0.00 | 0.00 | 88 | 1013.1 |
| 20260510022549 | 16 | 0 | 0.0 | 0.0 | 0.00 | 0.00 | 0.00 | 88 | 1012.9 |
| 20260510022048 | 16 | 0 | 0.0 | 0.0 | 0.00 | 0.00 | 0.00 | 87 | 1012.9 |
| 20260510021553 | 16 | 0 | 0.0 | 0.0 | 0.00 | 0.00 | 0.00 | 87 | 1012.8 |
| 20260510021047 | 16 | 0 | 0.0 | 0.0 | 0.00 | 0.00 | 0.00 | 86 | 1012.8 |
| 20260510020547 | 16 | 0 | 0.0 | 1.6 | 0.00 | 0.00 | 0.00 | 86 | 1012.7 |
| 20260510020057 | 16 | 0 | 0.0 | 1.6 | 0.00 | 0.00 | 0.00 | 86 | 1012.7 |
| 20260510015546 | 16 | 0 | 0.0 | 0.0 | 0.00 | 0.00 | 0.00 | 85 | 1012.8 |
| 20260510015044 | 16 | 0 | 0.0 | 0.0 | 0.00 | 0.00 | 0.00 | 85 | 1012.7 |
| 20260510014553 | 16 | 0 | 0.0 | 0.0 | 0.00 | 0.00 | 0.00 | 85 | 1012.7 |
| 20260510014045 | 16 | 0 | 0.0 | 1.6 | 0.00 | 0.00 | 0.00 | 84 | 1012.6 |
| 20260510013548 | 17 | 0 | 0.0 | 1.6 | 0.00 | 0.00 | 0.00 | 84 | 1012.4 |
| 20260510013055 | 17 | 0 | 0.0 | 1.6 | 0.00 | 0.00 | 0.00 | 83 | 1012.3 |
| 20260510012547 | 17 | 0 | 0.0 | 1.6 | 0.00 | 0.00 | 0.00 | 83 | 1012.3 |
| 20260510012049 | 17 | 0 | 0.0 | 1.6 | 0.00 | 0.00 | 0.00 | 83 | 1012.1 |
| 20260510011555 | 17 | 0 | 0.0 | 0.0 | 0.00 | 0.00 | 0.00 | 83 | 1011.8 |
| 20260510011044 | 17 | 0 | 0.0 | 0.0 | 0.00 | 0.00 | 0.00 | 82 | 1011.8 |
| 20260510010545 | 17 | 0 | 0.0 | 0.0 | 0.00 | 0.00 | 0.00 | 82 | 1011.8 |
| 20260510010056 | 17 | 0 | 0.0 | 0.0 | 0.00 | 0.00 | 0.00 | 81 | 1011.7 |
| 20260510005545 | 17 | 0 | 0.0 | 0.0 | 0.00 | 0.00 | 0.00 | 81 | 1011.6 |
| 20260510005044 | 17 | 0 | 0.0 | 0.0 | 0.00 | 0.00 | 0.00 | 81 | 1011.5 |
| 20260510004554 | 18 | 0 | 0.0 | 0.0 | 0.00 | 0.00 | 0.00 | 80 | 1011.5 |
| 20260510004044 | 18 | 0 | 0.0 | 0.0 | 0.00 | 0.00 | 0.00 | 80 | 1011.5 |
| 20260510003545 | 18 | 0 | 0.0 | 0.0 | 0.00 | 0.00 | 0.00 | 78 | 1011.4 |
| 20260510003103 | 18 | 0 | 0.0 | 0.0 | 0.00 | 0.00 | 0.00 | 78 | 1011.4 |
| 20260510002544 | 19 | 0 | 0.0 | 0.0 | 0.00 | 0.00 | 0.00 | 77 | 1011.3 |
| 20260510002048 | 19 | 0 | 0.0 | 0.0 | 0.00 | 0.00 | 0.00 | 77 | 1011.3 |
| 20260510001549 | 19 | 0 | 0.0 | 1.6 | 0.00 | 0.00 | 0.00 | 76 | 1011.2 |
| 20260510001044 | 20 | 0 | 0.0 | 3.2 | 0.00 | 0.00 | 0.00 | 76 | 1011.2 |
| 20260510000548 | 20 | 87 | 0.0 | 6.4 | 0.00 | 0.00 | 0.00 | 75 | 1011.1 |
| 20260510000054 | 20 | 0 | 0.0 | 6.4 | 0.00 | 0.00 | 0.00 | 74 | 1011.0 |
| 20260509235547 | 20 | 86 | 1.6 | 9.7 | 0.00 | 0.00 | 0.00 | 74 | 1011.1 |
| 20260509235048 | 20 | 114 | 1.6 | 9.7 | 0.00 | 0.00 | 0.00 | 73 | 1011.1 |
| 20260509234554 | 20 | 0 | 1.6 | 8.0 | 0.00 | 0.00 | 0.00 | 73 | 1011.0 |
| 20260509234049 | 20 | 109 | 0.0 | 11.3 | 0.00 | 0.00 | 0.00 | 73 | 1011.0 |
| 20260509233549 | 20 | 0 | 0.0 | 11.3 | 0.00 | 0.00 | 0.00 | 73 | 1010.9 |
| 20260509233051 | 21 | 74 | 0.0 | 11.3 | 0.00 | 0.00 | 0.00 | 72 | 1011.0 |
| 20260509232548 | 21 | 0 | 3.2 | 12.9 | 0.00 | 0.00 | 0.00 | 72 | 1010.7 |
| 20260509232045 | 21 | 91 | 3.2 | 12.9 | 0.00 | 0.00 | 0.00 | 72 | 1010.7 |
| 20260509231601 | 21 | 90 | 3.2 | 12.9 | 0.00 | 0.00 | 0.00 | 72 | 1010.5 |
| 20260509231044 | 21 | 80 | 1.6 | 11.3 | 0.00 | 0.00 | 0.00 | 71 | 1010.6 |
| 20260509230544 | 21 | 0 | 0.0 | 11.3 | 0.00 | 0.00 | 0.00 | 71 | 1010.7 |
| 20260509230053 | 21 | 25 | 1.6 | 6.4 | 0.00 | 0.00 | 0.00 | 71 | 1010.6 |
| 20260509225549 | 21 | 107 | 1.6 | 12.9 | 0.00 | 0.00 | 0.00 | 71 | 1010.6 |
| 20260509225045 | 21 | 0 | 3.2 | 12.9 | 0.00 | 0.00 | 0.00 | 70 | 1010.6 |
| 20260509224559 | 22 | 86 | 6.4 | 12.9 | 0.00 | 0.00 | 0.00 | 69 | 1010.4 |
| 20260509224045 | 22 | 84 | 3.2 | 11.3 | 0.00 | 0.00 | 0.00 | 69 | 1010.4 |
| 20260509223545 | 22 | 348 | 1.6 | 11.3 | 0.00 | 0.00 | 0.00 | 69 | 1010.3 |
| 20260509223053 | 22 | 103 | 1.6 | 14.5 | 0.00 | 0.00 | 0.00 | 69 | 1010.3 |
| 20260509222546 | 22 | 92 | 3.2 | 14.5 | 0.00 | 0.00 | 0.00 | 68 | 1010.4 |
| 20260509222046 | 22 | 96 | 3.2 | 12.9 | 0.00 | 0.00 | 0.00 | 68 | 1010.3 |
| 20260509221555 | 22 | 32 | 1.6 | 12.9 | 0.00 | 0.00 | 0.00 | 69 | 1010.2 |
| 20260509221048 | 22 | 91 | 4.8 | 17.7 | 0.00 | 0.00 | 0.00 | 66 | 1010.2 |
| 20260509220548 | 22 | 56 | 6.4 | 17.7 | 0.00 | 0.00 | 0.00 | 66 | 1010.3 |
| 20260509220058 | 22 | 58 | 4.8 | 17.7 | 0.00 | 0.00 | 0.00 | 65 | 1010.2 |
| 20260509215545 | 22 | 103 | 4.8 | 17.7 | 0.00 | 0.00 | 0.00 | 65 | 1010.3 |
| 20260509215048 | 23 | 42 | 8.0 | 17.7 | 0.00 | 0.00 | 0.00 | 65 | 1010.3 |
| 20260509214555 | 23 | 65 | 6.4 | 17.7 | 0.00 | 0.00 | 0.00 | 65 | 1010.3 |
| 20260509214047 | 23 | 98 | 3.2 | 12.9 | 0.00 | 0.00 | 0.00 | 67 | 1010.2 |
| 20260509213547 | 22 | 74 | 3.2 | 11.3 | 0.00 | 0.00 | 0.00 | 67 | 1010.2 |
| 20260509213057 | 22 | 21 | 4.8 | 16.1 | 0.00 | 0.00 | 0.00 | 67 | 1010.2 |
| 20260509212544 | 22 | 0 | 4.8 | 16.1 | 0.00 | 0.00 | 0.00 | 66 | 1010.2 |
| 20260509212044 | 22 | 42 | 3.2 | 12.9 | 0.00 | 0.00 | 0.00 | 68 | 1010.3 |
| 20260509211557 | 22 | 71 | 3.2 | 14.5 | 0.00 | 0.00 | 0.00 | 67 | 1010.4 |
| 20260509211049 | 22 | 103 | 4.8 | 14.5 | 0.00 | 0.00 | 0.00 | 66 | 1010.4 |
| 20260509210547 | 22 | 89 | 3.2 | 12.9 | 0.00 | 0.00 | 0.00 | 66 | 1010.2 |
| 20260509210059 | 22 | 49 | 3.2 | 14.5 | 0.00 | 0.00 | 0.00 | 69 | 1010.1 |
| 20260509205548 | 22 | 113 | 4.8 | 14.5 | 0.00 | 0.00 | 0.00 | 68 | 1010.1 |
| 20260509205044 | 22 | 71 | 1.6 | 9.7 | 0.00 | 0.00 | 0.00 | 69 | 1009.9 |
| 20260509204607 | 21 | 0 | 0.0 | 16.1 | 0.00 | 0.00 | 0.00 | 69 | 1009.8 |
| 20260509204046 | 21 | 85 | 3.2 | 16.1 | 0.00 | 0.00 | 0.00 | 67 | 1010.0 |
| 20260509203547 | 22 | 326 | 3.2 | 11.3 | 0.00 | 0.00 | 0.00 | 68 | 1010.1 |
| 20260509203105 | 22 | 316 | 1.6 | 11.3 | 0.00 | 0.00 | 0.00 | 68 | 1010.3 |
| 20260509202548 | 22 | 140 | 3.2 | 11.3 | 0.00 | 0.00 | 0.00 | 68 | 1010.3 |
| 20260509202048 | 22 | 11 | 1.6 | 14.5 | 0.00 | 0.00 | 0.00 | 68 | 1010.3 |
| 20260509201553 | 22 | 97 | 1.6 | 14.5 | 0.00 | 0.00 | 0.00 | 68 | 1010.2 |
| 20260509201044 | 22 | 144 | 4.8 | 14.5 | 0.00 | 0.00 | 0.00 | 67 | 1010.2 |
| 20260509200547 | 22 | 317 | 4.8 | 14.5 | 0.00 | 0.00 | 0.00 | 66 | 1010.3 |
| 20260509200057 | 22 | 39 | 3.2 | 14.5 | 0.00 | 0.00 | 0.00 | 67 | 1010.2 |
| 20260509195549 | 22 | 104 | 4.8 | 14.5 | 0.00 | 0.00 | 0.00 | 67 | 1010.4 |
| 20260509195049 | 22 | 298 | 6.4 | 17.7 | 0.00 | 0.00 | 0.00 | 67 | 1010.4 |
| 20260509194606 | 22 | 271 | 8.0 | 17.7 | 0.00 | 0.00 | 0.00 | 68 | 1010.4 |
| 20260509194048 | 22 | 50 | 6.4 | 14.5 | 0.00 | 0.00 | 0.00 | 69 | 1010.4 |
| 20260509193546 | 22 | 54 | 3.2 | 12.9 | 0.00 | 0.00 | 0.00 | 68 | 1010.6 |
| 20260509193109 | 21 | 100 | 4.8 | 16.1 | 0.00 | 0.00 | 0.00 | 71 | 1010.7 |
| 20260509192546 | 21 | 13 | 4.8 | 16.1 | 0.00 | 0.00 | 0.00 | 71 | 1010.8 |
| 20260509192044 | 21 | 73 | 1.6 | 14.5 | 0.00 | 0.00 | 0.00 | 73 | 1011.0 |
| 20260509191557 | 20 | 123 | 3.2 | 9.7 | 0.00 | 0.00 | 0.00 | 73 | 1011.0 |
| 20260509191045 | 20 | 108 | 3.2 | 9.7 | 0.00 | 0.00 | 0.00 | 73 | 1011.0 |